Погода в Мариуполе

Погода в Мариуполе : погода сейчас, прогноз погоды и архив. Всё, что Вы хотите узнать о погоде в Мариуполе!

Поиск расширенной информации на нашем сайте:

Полезная информация: Нужно шлифовать строганный брус les-mir.ru.
в москве дюбель цена адекватная

Другие новости

Новости СМИ2

Главная страница сайта

Новости сайта

02.10.2013

Напоминаем, что на нашем новом сайте вы можете получить высокодетализированные прогнозы погоды по пунктам России, СНГ и мира (включающие важные для авиации метеовеличины, такие как направление и скорость ветра, видимость, явления погоды, количество и форма облачности, нижняя и верхняя граница облачности), а также ознакомиться с разнообразными материалами по авиационной метеорологии и подборкой полезных ссылок на эту тему.

Сайт Метеоцентр.Азия посвящён разработке технологий оптимизации авиаметеорологического обслуживания, включая проектирование и перспективное создание нескольких автоматизированных авиаметеорологических систем:
- система выпуска высокодетальных прогностических карт явлений погоды для нижнего воздушного пространства по России и ближнему зарубежью;
- система верификации прогнозов TAF (выпускаемых синоптиками официальных АМСГ РФ и ближнего зарубежья) и AUTOTAF (выпускаемых сайтом Метеоцентр.Азия) - выявление ошибок, онлайн-сопоставление с фактической погодой METAR, автоматическое внесение коррективов в прогнозы при резком отклонении фактической погоды от прогноза, подсчёт оправдываемости прогнозов по элементам и в целом;
- система обработки, анализа и отображения авиаметеорологической информации для применения провайдерами метеорологической информации.

Рекомендуем: Обучение наращиванию ногтей в ONS - обучение наращиванию ногтей в москве.

Погода в Мариуполе - сегодня

Время (UTC), дата Ветер
(°,м/с) 
Видим.   Явления Облачность Т
(°С)
Тd
(°С)
f(%) Тe
(°С)
Pmin
(гПа)
dP
(гПа)
Po
(мм)
O2
(г/м3)
Тmin Tmax R s Состояние
почвы
12 17.10.14 360 (С) 10 км    3/0 верхняя 
[Ci fib]
+18.5 +5.6 43 +19  1007.1  0.2  749  282           
15 17.10.14 320 (СЗ) 10 км    8/0 верхняя 
[Ci sp]
+16.6 +4.5 45 +17  1008.3  1.1  750  284           
18 17.10.14 270 (З) 10 км    ясно 
+13.6 +6.5 62 +13  1008.5  0.1  750  287    +18.7       
21 17.10.14 300 (СЗ) 10 км    5/0 средняя 
[Ac trans]
+13.2 +10.9 86 +15  1008.1  -0.4  750  286           
00 18.10.14 320 (СЗ) 10 км    8/0 средняя 
[Ac As]
+13.4 +11.3 87 +16  1007.2  -0.9  749  286         
03 18.10.14 020 (С) 10 км  слаб. ливневой дождь  10/6 700 м кучево-дожд., средняя 
[Cb cap|Ac As]
+12.2 +11.2 94 +16  1006.6  -0.6  749  287          полностью
покрыта
пылью 
06 18.10.14 010 (С) 4000 м  слаб. дождь{ливн. осадки}  10/9 300 м средняя 
[Frnb|As op]
+12 +11.4 96 +15  1006.7  0.1  749  287  +11.4       
09 18.10.14 030 (СВ) 20000 м  дымка{дождь}  10/10 630 м 
[Sc]
+13 +9 77 +13  1006.8  0.1  749  286           
12 18.10.14 050 (СВ) 20000 м  {дождь}  9/9 600 м кучево-дожд. 
[Cb cap]
+12.3 +3 53 +11  1007.9  1.1             
15 18.10.14 360 (С) 20000 м    10/10 630 м кучево-дожд. 
[Cb cap]
+9.1 +0.4 54 +7  1010.4  2.4  752  293           
18 18.10.14 360 (С) 20000 м    10/10 700 м кучево-дожд. 
[Cb cap]
+4.3 -2.2 63 +1  1014.9  4.3  755  300    +13.5  0.1     
21 18.10.14 020 (С) 20000 м    10/10 720 м кучево-дожд. 
[Cb cap]
+3.2 -4.4 57 1017.3  2.3  756  302           
00 19.10.14 020 (С) 20000 м    10/10 750 м 
[Sc]
+2.9 -4.4 59 1018.9  1.6  758  303           
03 19.10.14 020 (С) 20000 м    10/10 720 м 
[Sc]
+2.5 -3.8 63 -1  1020.9  759  304           
06 19.10.14 360 (С) 20000 м    8/4 600 м средняя, верхняя 
[Cu med, cong|Ac As|Ci fib]
+2.6 -5.6 55 1023.5  2.5  761  304  +1.8         
09 19.10.14 020 (С) 20000 м    10/10 960 м 
[Sc]
+2.7 -5.5 55 1025.5  763  305        мокрый или
старый снег
50-90% 
12 19.10.14 050 (СВ) 20000 м    10/10 1050 м 
[Sc]
+3.8 -5.5 51 +3  1025.8  0.4  763  304           
15 19.10.14 020 (С) 10 км    3/0 средняя 
[Ac trans]
+3 -5.9 52 +4  1026.6  0.7  763  305           
18 19.10.14 270 (З) 10 км    ясно 
+1.8 -5.2 60 +1  1026.9  0.3  764  306    +4.6       
21 19.10.14 290 (З) 20000 м    ясно 
+0.6 -4.5 69 -1  1026.8  -0.1  764  307           
00 20.10.14 320 (СЗ) 20000 м    10/0 средняя 
[Ac und]
+1 -5.1 64 -1  1025.7  -1.1  763  307        797   
03 20.10.14 320 (СЗ) 20000 м    9/0 средняя, верхняя 
[Ac As|Cc]
+1.6 -5.4 60 -1  1023.8  -1.9  761  306        597   
06 20.10.14 320 (СЗ) 20000 м    4/0 средняя, верхняя 
[Ac trans|Cs]
+3.2 -4.4 57 +1  1022.7  -1  761  303  -0.3  +0.5       
09 20.10.14 250 (З) 20000 м    8/0 средняя, верхняя 
[Ac As|Cc]
+9 -1.1 49 +7  1020.6  -1.9  759  296        597   
12 20.10.14 250 (З) 20000 м    4/3 1500 м средняя 
[Cu hum|Ac trans]
+11.1 +2.2 54 +9  1017.1  -3.4  757  293           
Время (UTC), дата Ветер
(°,м/с) 
Видим.   Явления Облачность Т
(°С)
Тd
(°С)
f(%) Тe
(°С)
Pmin
(гПа)
dP
(гПа)
Po
(мм)
O2
(г/м3)
Тmin Tmax R s Состояние
почвы

Для получения пояснительной информации подведите курсор к названию столбца.

ПОГОДА в Мариуполе - архив

Всё, что Вы хотите узнать о погоде в Мариуполе - удобно и подробно!

Выберите нужную дату (начиная с 1 января 2013* года) и нажмите кнопку "Найти".
Будут отображены архивные сводки погоды по пункту Мариуполь, начиная с указанной даты.


Отображать данные в формате CSV (для использования в таблицах Excel)


Внимание! Наш архив погоды предназначен исключительно для личного некоммерческого использования в познавательных целях. Если Вам необходимы официальные справки о состоянии погоды (для производственных, юридических, коммерческих и т.п. целей), обращайтесь в органы Росгидромета.

*Примечание: данная дата относится к архиву по метеостанциям СССР (Россия, СНГ, Балтия).
Архив по метеостанциям Зарубежной Европы и Азии (кроме Китая) хранится 10 дней, по другим регионам земного шара (Китай, Африка, Америка, Австралия, Океания) - 1 день.

Мариуполь - район местоположения метеостанции


Название, широта, долгота, высота метеостанции:
Мариуполь (город) 47°ш. 37.5°д. 70 м над ур. моря [Украина]

Дополнительная информация

В oтличие oт бoльшинства пoгoдных сайтoв мы публикуем пoдрoбную метеoинфoрмацию в детальнoм прoфессиoнальнoм фoрмате.

Характеристики температуры и влажнoсти вoздуха измеряются на высoте 2 м в тени вдали oт зданий и деревьев.
Скoрoсть ветра измеряется на высoте 10 м (на урoвне рoста челoвека скoрoсть ветра ниже в 1.5-2 раза). Если метеoстанция нахoдится в гoрoде или в лесу, тo скoрoсть ветра занижена на 2-4 м/с пo сравнению с oткрытым местoм. Скoрoсть ветра над акватoриями крупных рек и oзёр, а также на вершинах хoлмoв на 2-5 м/с выше, чем в oбычных услoвиях.
Атмoсфернoе давление в разных тoчках местнoсти мoжет значительнo oтличаться oт давления на метеoстанции, в зависимoсти oт услoвий рельефа (при пoдъёме на 10 м давление пoнижается примернo на 1 мм рт.ст.).